This is the latest recevied weather packets stored in our database for station/object OK1PMP-6. If no packets are shown the sender has not sent any weather packets the latest 10 day(s).
| Time | Temp. | Humidity | Pressure | Rain* | Wind** | Luminosity | Snow |
|---|---|---|---|---|---|---|---|
| 1777479773 | 11.67° C | 24% | 1031 hPa | 0 mm | - | 48 W/m² | - |
| 1777478874 | 12.78° C | 23% | 1030.6 hPa | 0 mm | - | 68 W/m² | - |
| 1777477078 | 13.89° C | 24% | 1030.3 hPa | 0 mm | - | 160 W/m² | - |
| 1777476176 | 13.89° C | 22% | 1030.3 hPa | 0 mm | - | 48 W/m² | - |
| 1777475276 | 13.89° C | 23% | 1030.1 hPa | 0 mm | - | 98 W/m² | - |
| 1777474376 | 14.44° C | 23% | 1030.2 hPa | 0 mm | - | 49 W/m² | - |
| 1777473477 | 14.44° C | 23% | 1030.2 hPa | 0 mm | - | 113 W/m² | - |
| 1777472574 | 15° C | 23% | 1030 hPa | 0 mm | - | 195 W/m² | - |
| 1777471674 | 15° C | 24% | 1029.9 hPa | 0 mm | - | 323 W/m² | - |
| 1777469874 | 15° C | 24% | 1029.6 hPa | 0 mm | - | 497 W/m² | - |
| 1777468978 | 14.44° C | 24% | 1029.7 hPa | 0 mm | - | 531 W/m² | - |
| 1777468074 | 15° C | 24% | 1029.7 hPa | 0 mm | - | 562 W/m² | - |
| 1777467174 | 14.44° C | 24% | 1029.6 hPa | 0 mm | - | 590 W/m² | - |
| 1777466274 | 14.44° C | 24% | 1029.7 hPa | 0 mm | - | 613 W/m² | - |
| 1777465376 | 14.44° C | 26% | 1029.3 hPa | 0 mm | - | 637 W/m² | - |
| 1777464473 | 15° C | 28% | 1029.2 hPa | 0 mm | - | 653 W/m² | - |
| 1777462675 | 13.89° C | 31% | 1029.2 hPa | 0 mm | - | 686 W/m² | - |
| 1777461776 | 14.44° C | 30% | 1029.3 hPa | 0 mm | - | 697 W/m² | - |
| 1777460873 | 14.44° C | 33% | 1029.1 hPa | 0 mm | - | 705 W/m² | - |
| 1777459974 | 13.89° C | 34% | 1029.5 hPa | 0 mm | - | 711 W/m² | - |
| 1777459074 | 13.89° C | 35% | 1029.1 hPa | 0 mm | - | 713 W/m² | - |
| 1777458174 | 14.44° C | 32% | 1028.9 hPa | 0 mm | - | 730 W/m² | - |
| 1777457274 | 14.44° C | 30% | 1029.3 hPa | 0 mm | - | 709 W/m² | - |
| 1777455474 | 15° C | 30% | 1029.2 hPa | 0 mm | - | 712 W/m² | - |
| 1777454573 | 13.89° C | 33% | 1029.5 hPa | 0 mm | - | 490 W/m² | - |
* Rain latest hour (hover to see other rain measurements)
** Current wind speed in m/s (hover to see current wind gust speed)